Cairns, Australia

8:10 AM AEST on January 17, 2017 (GMT +1000)
Cairns International

Weather History for YBCS - April, 2014

Change the Weather History Date:

Saturday, April 26, 2014

  Actual Average Record
Temperature  
Mean Temperature 80 °F -  
Max Temperature 85 °F 82 °F 87 °F (1998)
Min Temperature 74 °F 68 °F 32 °F (2004)
Cooling Degree Days 14    
Growing Degree Days 30 (Base 50)    
Moisture  
Dew Point 72 °F    
Average Humidity 80    
Maximum Humidity 94    
Minimum Humidity 58    
Precipitation  
Precipitation 0.02 in 0.16 in - ()
Sea Level Pressure  
Sea Level Pressure 29.90 in    
Wind  
Wind Speed 12 mph ()    
Max Wind Speed 20 mph    
Max Gust Speed -    
Visibility 6.5 miles    
Events Rain    
Averages and records for this station are not official NWS values.
T = Trace of Precipitation, MM = Missing Value Source: Averaged Metar Reports

Daily Weather History Graph

Daily Weather History Graph

Search for Another Location

Airport or City:

Trip Planner

Search our weather history database for the weather conditions in past years. The results will help you decide how hot, cold, wet, or windy it might be!

Date:

Astronomy

Apr. 26, 2014 Rise Set
Actual Time 6:27 AM AEST 6:01 PM AEST
Civil Twilight 6:05 AM AEST 6:23 PM AEST
Nautical Twilight 5:40 AM AEST 6:49 PM AEST
Astronomical Twilight 5:14 AM AEST 7:14 PM AEST
Moon 3:20 AM AEST (4/26) 3:44 PM AEST (4/26)
Length of Visible Light 12h 18m
Length of Day
11h 33m
Waning Crescent, 12% of the Moon is Illuminated
Apr 26
Waning Crescent
Apr 29
New
May 7
First Quarter
May 15
Full
May 21
Last Quarter

Hourly Weather History & Observations

Time (AEST) Temp. Heat Index Dew Point Humidity Pressure Visibility Wind Dir Wind Speed Gust Speed Precip Events Conditions
12:00 AM 75 °F - 73 °F 91% 29.93 in - SSE 11.5 mph - -   Overcast
12:00 AM 75.2 °F - 73.4 °F 94% 29.92 in 6.2 mi SSE 11.5 mph - N/A   Mostly Cloudy
12:30 AM 75.2 °F - 71.6 °F 89% 29.92 in 6.2 mi South 11.5 mph - N/A   Mostly Cloudy
1:00 AM 76 °F - 72 °F 82% 29.92 in - South 11.5 mph - -  
1:00 AM 75.2 °F - 71.6 °F 89% 29.89 in 4.3 mi South 11.5 mph - N/A Rain Light Rain Showers
1:30 AM 75.2 °F - 71.6 °F 89% 29.89 in 6.2 mi South 15.0 mph - N/A   Mostly Cloudy
2:00 AM 75.2 °F - 71.6 °F 89% 29.89 in 6.2 mi South 11.5 mph - N/A Rain Light Rain Showers
2:30 AM 75.2 °F - 69.8 °F 83% 29.89 in 6.2 mi South 12.7 mph - N/A Rain Light Rain Showers
3:00 AM 75 °F - 71 °F 85% 29.88 in - South 10.4 mph - -  
3:00 AM 75.2 °F - 71.6 °F 89% 29.86 in 6.2 mi South 10.4 mph - N/A Rain Light Rain Showers
3:30 AM 75.2 °F - 71.6 °F 89% 29.86 in 6.2 mi South 11.5 mph - N/A   Mostly Cloudy
4:00 AM 76 °F - 71 °F 82% 29.89 in - South 10.4 mph - -  
4:00 AM 75.2 °F - 71.6 °F 89% 29.86 in 6.2 mi South 10.4 mph - N/A   Mostly Cloudy
4:30 AM 75.2 °F - 71.6 °F 89% 29.86 in 6.2 mi South 9.2 mph - N/A   Mostly Cloudy
5:00 AM 77.0 °F - 71.6 °F 83% 29.89 in 6.2 mi South 11.5 mph - N/A   Mostly Cloudy
5:30 AM 75.2 °F - 73.4 °F 94% 29.89 in 4.3 mi SE 10.4 mph - N/A Rain Light Rain Showers
5:48 AM 73.4 °F - 71.6 °F 94% 29.89 in 6.2 mi SSE 9.2 mph - N/A   Mostly Cloudy
6:00 AM 74 °F - 72 °F 93% 29.90 in - SSE 10.4 mph - -   Overcast
6:00 AM 75.2 °F - 71.6 °F 89% 29.89 in 6.2 mi SSE 10.4 mph - N/A   Mostly Cloudy
6:30 AM 75.2 °F - 71.6 °F 89% 29.89 in 6.2 mi SSE 11.5 mph - N/A   Mostly Cloudy
7:00 AM 76 °F - 71 °F 80% 29.93 in - South 9.2 mph - -  
7:00 AM 77.0 °F - 71.6 °F 83% 29.92 in 6.2 mi South 9.2 mph - N/A   Scattered Clouds
7:30 AM 77.0 °F - 71.6 °F 83% 29.92 in 6.2 mi South 10.4 mph - N/A   Scattered Clouds
8:00 AM 77.0 °F - 71.6 °F 83% 29.92 in 6.2 mi South 11.5 mph - N/A   Partly Cloudy
8:30 AM 78.8 °F - 71.6 °F 78% 29.92 in 6.2 mi SSE 12.7 mph - N/A   Partly Cloudy
9:00 AM 80 °F - 73 °F 73% 29.95 in 19 mi South 12.7 mph - -   Partly Cloudy
9:00 AM 80.6 °F 85.4 °F 73.4 °F 79% 29.95 in 6.2 mi South 12.7 mph - N/A   Partly Cloudy
9:30 AM 80.6 °F 85.4 °F 73.4 °F 79% 29.95 in 6.2 mi South 13.8 mph - N/A   Partly Cloudy
10:00 AM 81 °F - 71 °F 65% 29.96 in - SSE 17.3 mph - -  
10:00 AM 80.6 °F 84.6 °F 71.6 °F 74% 29.95 in 6.2 mi SSE 17.3 mph - N/A   Scattered Clouds
10:30 AM 80.6 °F 84.6 °F 71.6 °F 74% 29.95 in 6.2 mi SSE 19.6 mph - N/A   Scattered Clouds
11:00 AM 82.4 °F 87.2 °F 71.6 °F 70% 29.92 in 6.2 mi SSE 19.6 mph - N/A   Scattered Clouds
11:30 AM 84.2 °F 89.6 °F 71.6 °F 66% 29.92 in 6.2 mi SE 18.4 mph - N/A   Partly Cloudy
12:00 PM 82 °F - 71 °F 62% 29.91 in - SE 18.4 mph - -  
12:00 PM 82.4 °F 87.2 °F 71.6 °F 70% 29.89 in 6.2 mi SE 18.4 mph - N/A   Mostly Cloudy
12:30 PM 84.2 °F 89.6 °F 71.6 °F 66% 29.89 in 6.2 mi SE 16.1 mph - N/A   Partly Cloudy
1:00 PM 85 °F - 72 °F 58% 29.89 in - SE 18.4 mph - -  
1:00 PM 84.2 °F 89.6 °F 71.6 °F 66% 29.86 in 6.2 mi SE 18.4 mph - N/A   Partly Cloudy
1:30 PM 84.2 °F 89.6 °F 71.6 °F 66% 29.86 in 6.2 mi SE 16.1 mph - N/A   Scattered Clouds
2:00 PM 80.6 °F 85.4 °F 73.4 °F 79% 29.86 in 6.2 mi ESE 17.3 mph - N/A Rain Light Rain Showers
2:12 PM 78.8 °F - 73.4 °F 83% 29.86 in 3.7 mi ESE 18.4 mph - N/A Rain Light Rain Showers
2:22 PM 77.0 °F - 73.4 °F 89% 29.86 in 6.2 mi ESE 18.4 mph - N/A   Mostly Cloudy
2:30 PM 77.0 °F - 75.2 °F 94% 29.86 in 6.2 mi ESE 12.7 mph - N/A   Mostly Cloudy
3:00 PM 78 °F - 71 °F 74% 29.86 in 16 mi SE 17.3 mph - -   Mostly Cloudy
3:00 PM 77.0 °F - 71.6 °F 83% 29.86 in 6.2 mi SE 17.3 mph - N/A   Mostly Cloudy
3:30 PM 78.8 °F - 71.6 °F 78% 29.86 in 6.2 mi SSE 9.2 mph - N/A   Mostly Cloudy
4:00 PM 80 °F - 71 °F 68% 29.88 in - SE 8.1 mph - -  
4:00 PM 80.6 °F 84.6 °F 71.6 °F 74% 29.86 in 6.2 mi SE 8.1 mph - N/A   Mostly Cloudy
4:30 PM 80.6 °F 84.6 °F 71.6 °F 74% 29.86 in 6.2 mi SE 13.8 mph - N/A   Mostly Cloudy
5:00 PM 77.0 °F - 73.4 °F 89% 29.86 in 6.2 mi SE 10.4 mph - N/A   Mostly Cloudy
5:30 PM 78.8 °F - 69.8 °F 74% 29.86 in 6.2 mi SSE 17.3 mph - N/A   Scattered Clouds
6:00 PM 78 °F - 70 °F 71% 29.89 in - SSE 11.5 mph - -  
6:00 PM 77.0 °F - 69.8 °F 78% 29.89 in 6.2 mi SSE 11.5 mph - N/A   Scattered Clouds
6:30 PM 78.8 °F - 71.6 °F 78% 29.89 in 6.2 mi SE 16.1 mph - N/A   Scattered Clouds
7:00 PM 78 °F - 71 °F 74% 29.92 in - SSE 13.8 mph - -  
7:00 PM 77.0 °F - 71.6 °F 83% 29.92 in 6.2 mi SSE 13.8 mph - N/A   Scattered Clouds
7:30 PM 77.0 °F - 69.8 °F 78% 29.92 in 6.2 mi South 9.2 mph - N/A   Scattered Clouds
8:00 PM 77.0 °F - 69.8 °F 78% 29.92 in 6.2 mi South 9.2 mph - N/A   Mostly Cloudy
8:30 PM 77.0 °F - 69.8 °F 78% 29.95 in 6.2 mi South 9.2 mph - N/A   Scattered Clouds
9:00 PM 77 °F - 70 °F 74% 29.95 in - South 9.2 mph - -  
9:00 PM 77.0 °F - 69.8 °F 78% 29.95 in 6.2 mi South 9.2 mph - N/A   Scattered Clouds
9:30 PM 77.0 °F - 71.6 °F 83% 29.95 in 6.2 mi South 9.2 mph - N/A   Partly Cloudy
10:00 PM 76 °F - 71 °F 80% 29.96 in - South 10.4 mph - -  
10:00 PM 77.0 °F - 71.6 °F 83% 29.95 in 6.2 mi South 10.4 mph - N/A   Partly Cloudy
10:30 PM 77.0 °F - 71.6 °F 83% 29.95 in 6.2 mi South 8.1 mph - N/A   Scattered Clouds
11:00 PM 77.0 °F - 69.8 °F 78% 29.95 in 6.2 mi South 10.4 mph - N/A   Partly Cloudy
11:30 PM 77.0 °F - 69.8 °F 78% 29.95 in 6.2 mi South 10.4 mph - N/A   Partly Cloudy